Location: ?ern� Novina
(50.6762°N, 14.8696°E)
Time: 12:46:55
(UTC+00:00)

SL-08 RB Rocket - Pass Details

Date: 03 March 2021
Orbit: 647 x 683 km, 97.8° (Epoch: 17 April)

Event Time Altitude Azimuth Distance (km) Brightness Sun altitude
Rises 17:14:08 0° 139° (SE) 2,973 6.7 -5.3°
Reaches altitude 10° 17:16:29 10° 130° (SE) 2,071 5.8 -5.7°
Maximum altitude 17:20:34 34° 66° (ENE) 1,093 4.4 -6.4°
Drops below altitude 10° 17:24:41 10° 2° (N) 2,106 6.3 -7.0°
Sets 17:27:05 0° 353° (N) 3,031 7.2 -7.4°
